Weather in Iljinsko-Podomskoe

Russia / Arkhangel'skaya Oblast'     61°06′56″N   47°58′40″E
temp.,
°C
wind,
m/s
gust,
m/s
humid.,
%
clouds,
%
prec.,
mm/h
press.,
hPa
HPBL,
m
15 april, thu
thu1500:00+11sw51685100 0.0 1016675
03:00+6n4990100 0.1 1019564
06:00+3n3896100 1.8 1022449
09:00+5n3576100 2.1 1023923
12:00+8n455223 0.0 10241472
15:00+7n46435 0.0 10261515
18:00+5n37584 0.0 1027313
21:00+1nnw28760 0.0 1029181
16 april, fri
fri1600:000n25815 0.0 1031102
03:00−1nne22825 0.0 103226
06:000nne11734 0.0 103375
09:00+5wnw12495 0.0 1033731
12:00+8wnw23415 0.0 10321211
15:00+9nw34405 0.0 10311420
18:00+6nw23595 0.0 103180
21:00+3wnw22746 0.0 103219
17 april, sat
sat1700:00+1nw22855 0.0 103218
03:000nnw23925 0.0 103259
06:00+1nnw26865 0.0 1033207
09:00+5nnw35585 0.0 1032807
12:00+8nw454519 0.0 10311188
15:00+9nw4648100 0.0 10301338
18:00+7wnw496075 0.0 1028799
21:00+4wnw413715 0.0 1028550
18 april, sun
sun1800:00+3nw412775 0.0 1027545
03:00+2n3108277 0.0 1028509
06:00+1nne48725 0.1 1031809
09:00+2ne46451 0.1 10331179
12:00+4ne45375 0.0 10331619
15:00+5ne45325 0.0 10341832
18:00+4ene36400 0.0 1035686
21:00−1ene28605 0.0 1037167
19 april, mon
mon1900:00−2ene26626 0.0 1038155
03:00−3e22635 0.0 103947
06:00−1ese12550 0.0 1040155
09:00+4e12345 0.0 10391167
12:00+6ene11290 0.0 10381497
15:00+7ne11283 0.0 10371529
18:00+5ne113949 0.0 103711
21:00+1ese00475 0.0 103710